[[{"header":{"parameterUnit":"m.s-1","parameterCategory":1,"la1":30.2991,"la2":30.254,"lo1":-89.0895,"lo2":-89.0444,"dy":0.0017,"dx":0.0017,"nx":28,"ny":28,"refTime":"2024-04-26T21:00:00:Z","depth":0,"parameterNumber":2,"parameterNumberName":"U-component_of_WINDS"},"data":[0,0,0,0,0,0,0,0,0,0,0,0,0,0,0,0,0,0,0,0,0,0,0,0,0,0,0,0,0,0,0,0,0,0,0,0,0,0,0,0,0,0,0,0,0,0,0,0,0,0,0,0,0,0,0,0,0,0,-8.2233,-8.2233,0,-8.2294,-8.2295,-8.2295,-8.2196,-8.2192,-8.2189,-8.2186,-8.2243,-8.2248,-8.2253,0,0,0,0,0,0,0,0,0,0,0,0,0,-8.2025,-8.2029,-8.2233,-8.2233,-8.2234,-8.2294,-8.2295,-8.2296,-8.2196,-8.2192,-8.2188,-8.2184,-8.2242,-8.2247,-8.2253,0,0,0,0,0,0,0,0,0,0,0,0,0,-8.2103,-8.2031,-8.2232,-8.2192,-8.2189,-8.2294,-8.2295,-8.2296,-8.2197,-8.2192,-8.2187,-8.2182,-8.224,-8.2247,-8.2254,-8.24,0,0,-8.2275,-8.2279,0,0,0,0,0,0,0,0,-8.2099,-8.2111,-8.2197,-8.2195,-8.2192,-8.2232,-8.2243,-8.2331,-8.2198,-8.2194,-8.2185,-8.218,-8.2243,-8.225,-8.2272,-8.2402,-8.2405,-8.2276,-8.228,-8.2283,-8.2285,0,0,0,0,0,0,0,-8.2094,-8.2108,-8.2257,-8.2198,-8.2195,-8.2169,-8.2175,-8.2259,-8.2246,-8.2194,-8.2187,-8.2196,-8.2241,-8.2266,-8.2273,-8.2406,-8.2276,-8.2282,-8.2287,-8.2289,-8.2658,-8.2663,0,0,0,0,0,0,-8.2094,-8.2104,-8.2255,-8.2259,-8.2132,-8.2177,-8.2183,-8.2224,-8.2245,-8.2244,-8.22,-8.2191,-8.2256,-8.2265,-8.2275,-8.2445,-8.2283,-8.229,-8.2294,-8.2652,-8.2659,-8.2665,0,0,0,0,0,0,-8.209,-8.2108,-8.2252,-8.218,-8.2196,-8.2186,-8.2233,-8.2228,-8.2253,-8.225,-8.2247,-8.2228,-8.2253,-8.2265,-8.2369,-8.2446,-8.2293,-8.23,-8.2645,-8.2654,-8.2662,-8.2788,0,0,0,0,0,0,-8.2084,-8.2108,-8.2164,-8.2182,-8.22,-8.2347,-8.2238,-8.2233,-8.2266,-8.2255,-8.2275,-8.2274,-8.225,-8.236,-8.2377,-8.2453,-8.2305,-8.2638,-8.2649,-8.2659,-8.2777,-8.28,-8.2819,0,0,0,0,0,-8.2077,-8.2196,-8.2167,-8.2186,-8.227,-8.2352,-8.2362,-8.2334,-8.2273,-8.2328,-8.2326,-8.2273,-8.2436,-8.2371,-8.2389,-8.2469,-8.2633,-8.2646,-8.2658,-8.2768,-8.2795,-8.2819,0,0,0,0,0,0,-8.2184,-8.2197,-8.2165,-8.2294,-8.2323,-8.2335,-8.2404,-8.2364,-8.241,-8.2397,-8.2358,-8.2363,-8.2476,-8.2483,-8.2411,-8.2611,-8.2524,-8.2541,-8.2601,-8.2627,-8.2648,-8.2642,-8.2311,0,0,0,0,0,-8.2224,-8.2291,-8.2298,-8.241,-8.2427,-8.2414,-8.2448,-8.2424,-8.2451,-8.2462,-8.2468,-8.2496,-8.2553,-8.2591,-8.2644,-8.278,-8.2781,-8.2843,-8.2864,-8.2882,-8.2895,-8.2966,-8.2992,-8.2706,-8.2706,-8.2705,0,0,-8.2304,-8.2319,-8.2363,-8.2432,-8.2452,-8.252,-8.2424,-8.25,-8.255,-8.2473,-8.2572,-8.2579,-8.2607,-8.2727,-8.2781,-8.2737,-8.2976,-8.2898,-8.2911,-8.2915,-8.2981,-8.3008,-8.3032,-8.2714,-8.2713,-8.2711,0,0,-8.2484,-8.2504,-8.2599,-8.2621,-8.2653,-8.2644,-8.2668,-8.2687,-8.2688,-8.2788,-8.2731,-8.279,-8.289,-8.2912,-8.2936,-8.3129,-8.308,-8.3147,-8.3255,-8.3325,-8.3347,-8.3367,-8.3432,-8.3457,-8.3162,-8.3162,-8.3162,0,-8.2578,-8.2681,-8.2652,-8.2733,-8.2764,-8.2701,-8.2796,-8.2819,-8.2866,-8.2888,-8.284,-8.2964,-8.2979,-8.3103,-8.315,-8.3173,-8.3196,-8.3142,-8.3347,-8.3366,-8.3384,-8.3446,-8.3471,-8.3169,-8.3169,-8.3168,-8.3167,0,-8.2794,-8.2866,-8.2939,-8.2988,-8.3028,-8.3116,-8.3099,-8.3143,-8.3116,-8.3112,-8.3214,-8.323,-8.3284,-8.3313,-8.3287,-8.3434,-8.3405,-8.3353,-8.3264,-8.3419,-8.3477,-8.3501,-8.318,-8.3178,-8.3175,-8.3173,0,0,-8.3039,-8.3074,-8.31,-8.3121,-8.3154,-8.3208,-8.3293,-8.3348,-8.3385,-8.3421,-8.3489,-8.3577,-8.3529,-8.3557,-8.3534,-8.3595,-8.3743,-8.3534,-8.3534,-8.357,-8.3903,-8.3939,-8.3967,-8.3714,-8.3718,-8.3722,-8.3899,0,-8.3216,-8.3363,-8.3341,-8.3482,-8.3547,-8.3491,-8.3564,-8.3591,-8.3591,-8.3645,-8.3644,-8.3705,-8.3638,-8.3655,-8.3714,-8.3713,-8.3809,-8.37,-8.3774,-8.3777,-8.3764,-8.3998,-8.4036,-8.4202,-8.3922,-8.3926,-8.3929,0,-8.344,-8.3486,-8.3635,-8.3657,-8.3684,-8.3751,-8.3799,-8.3853,-8.3883,-8.3878,-8.3911,-8.3877,-8.396,-8.3874,-8.3987,-8.3914,-8.3943,-8.3948,-8.3954,-8.3956,-8.3859,-8.4002,-8.4255,-8.4279,-8.3964,-8.3961,-8.3959,0,-8.36,-8.3699,-8.38,-8.3821,-8.3851,-8.3899,-8.3913,-8.3938,-8.3973,-8.4016,-8.4037,-8.409,-8.4117,-8.4157,-8.4138,-8.4078,-8.4254,-8.4166,-8.4249,-8.425,-8.4284,-8.4282,-8.4542,-8.4311,-8.4311,-8.4311,-8.431,0,-8.3797,-8.3889,-8.3872,-8.3934,-8.4036,-8.401,-8.4111,-8.4118,-8.4142,-8.4202,-8.4158,-8.4215,-8.4188,-8.4244,-8.423,-8.4324,-8.4338,-8.4334,-8.4328,-8.4336,-8.4336,-8.4351,-8.4337,-8.4317,-8.4316,-8.4314,-8.4313,0,-8.399,-8.3983,-8.4089,-8.411,-8.4118,-8.4191,-8.4208,-8.4265,-8.4263,-8.4341,-8.4357,-8.4353,-8.4416,-8.4402,-8.4472,-8.4462,-8.458,-8.4562,-8.457,-8.4564,-8.4646,-8.4637,-8.4921,-8.4956,-8.4707,-8.471,-8.4712,0,-8.4114,-8.4184,-8.4213,-8.4252,-8.427,-8.4333,-8.4369,-8.4348,-8.4387,-8.4427,-8.4479,-8.4539,-8.4586,-8.469,-8.4691,-8.4744,-8.4724,-8.4821,-8.4732,-8.4737,-8.4721,-8.4716,-8.4721,-8.4837,-8.4839,-8.4842,-8.4844,0,-8.4334,-8.4328,-8.4382,-8.4436,-8.4481,-8.4522,-8.4558,-8.4592,-8.4574,-8.462,-8.4685,-8.4722,-8.4794,-8.4853,-8.4903,-8.4915,-8.4876,-8.4873,-8.4894,-8.49,-8.49,-8.4898,-8.4613,-8.4865,-8.4863,-8.4861,-8.486,-8.4859,-8.4493,-8.4553,-8.4583,-8.4645,-8.4671,-8.4707,-8.4761,-8.4767,-8.4822,-8.4879,-8.4864,-8.4938,-8.4966,-8.5029,-8.5048,-8.5104,-8.5068,-8.51,-8.5107,-8.5114,-8.5122,-8.4896,-8.5114,-8.5113,-8.5113,-8.5112,-8.5112,0,-8.4708,-8.4725,-8.4783,-8.4837,-8.4886,-8.4849,-8.4887,-8.493,-8.4996,-8.5027,-8.5075,-8.515,-8.5208,-8.5216,-8.527,-8.5314,-8.5297,-8.5328,-8.5323,-8.5326,-8.5153,-8.5128,-8.5341,-8.5341,-8.5341,-8.5341,-8.5341,-8.5341,-8.4825,-8.4922,-8.492,-8.503,-8.5046,-8.512,-8.5145,-8.5177,-8.5201,-8.5288,-8.5337,-8.5343,-8.5364,-8.542,-8.5471,-8.5472,-8.5492,-8.553,-8.5523,-8.5361,-8.5338,-8.5316,-8.5292,-8.5536,-8.5536,-8.569,-8.5692,-8.5693]},{"header":{"parameterUnit":"m.s-1","parameterCategory":1,"la1":30.2991,"la2":30.254,"lo1":-89.0895,"lo2":-89.0444,"dy":0.0017,"dx":0.0017,"nx":28,"ny":28,"refTime":"2024-04-26T21:00:00:Z","depth":0,"parameterNumber":3,"parameterNumberName":"V-component_of_WINDS"},"data":[0,0,0,0,0,0,0,0,0,0,0,0,0,0,0,0,0,0,0,0,0,0,0,0,0,0,0,0,0,0,0,0,0,0,0,0,0,0,0,0,0,0,0,0,0,0,0,0,0,0,0,0,0,0,0,0,0,0,3.3014,3.3014,0,3.3047,3.3047,3.3047,3.3043,3.3042,3.3042,3.3041,3.3072,3.3073,3.3074,0,0,0,0,0,0,0,0,0,0,0,0,0,3.2946,3.2947,3.3014,3.3014,3.3015,3.3046,3.3047,3.3047,3.3043,3.3042,3.3042,3.3041,3.3071,3.3073,3.3074,0,0,0,0,0,0,0,0,0,0,0,0,0,3.2977,3.2948,3.3014,3.3016,3.3017,3.3046,3.3047,3.3047,3.3043,3.3042,3.3041,3.3041,3.3071,3.3073,3.3075,3.3103,0,0,3.3081,3.3082,0,0,0,0,0,0,0,0,3.2975,3.2979,3.3015,3.3016,3.3017,3.304,3.3034,3.3066,3.3043,3.3033,3.3041,3.304,3.3062,3.3064,3.3072,3.3104,3.3106,3.3081,3.3082,3.3083,3.3083,0,0,0,0,0,0,0,3.2973,3.2978,3.3027,3.3016,3.3017,3.3015,3.3019,3.304,3.3051,3.3034,3.3034,3.3038,3.3062,3.307,3.3073,3.3106,3.3081,3.3083,3.3084,3.3085,3.3165,3.3166,0,0,0,0,0,0,3.297,3.2976,3.3026,3.3028,3.2994,3.3017,3.3021,3.3033,3.3051,3.3053,3.3038,3.3037,3.3067,3.307,3.3074,3.3109,3.3083,3.3085,3.3086,3.3164,3.3165,3.3166,0,0,0,0,0,0,3.2969,3.2975,3.3024,3.3002,3.3008,3.3019,3.3033,3.3034,3.3043,3.3055,3.3056,3.3045,3.3067,3.3071,3.3096,3.311,3.3086,3.3087,3.3163,3.3164,3.3166,3.3179,0,0,0,0,0,0,3.2967,3.2974,3.2985,3.3002,3.3009,3.3046,3.3034,3.3035,3.3046,3.3045,3.3061,3.3063,3.3066,3.3093,3.3098,3.3112,3.3089,3.3162,3.3164,3.3165,3.3177,3.3181,3.3184,0,0,0,0,0,3.2965,3.2987,3.2986,3.2992,3.3023,3.3047,3.3051,3.3056,3.3047,3.3059,3.3067,3.3062,3.3108,3.3096,3.3101,3.3116,3.3161,3.3163,3.3165,3.3176,3.318,3.3184,0,0,0,0,0,0,3.2969,3.2989,3.2988,3.3016,3.303,3.3046,3.306,3.3059,3.3075,3.3073,3.3078,3.3081,3.3107,3.3114,3.31,3.3145,3.3133,3.3137,3.314,3.3144,3.3147,3.3144,3.3091,0,0,0,0,0,3.2974,3.2992,3.3008,3.3031,3.3039,3.3049,3.3059,3.3062,3.3076,3.3081,3.3091,3.3105,3.3122,3.3133,3.315,3.3179,3.3183,3.3192,3.3195,3.3198,3.32,3.3217,3.3222,3.3173,3.3173,3.3173,0,0,3.2982,3.2996,3.3007,3.3033,3.3044,3.3063,3.3053,3.3073,3.3087,3.3084,3.3109,3.3117,3.3132,3.316,3.3173,3.3167,3.3215,3.32,3.3202,3.3203,3.322,3.3225,3.3229,3.3175,3.3174,3.3174,0,0,3.3009,3.302,3.3042,3.3054,3.3072,3.3079,3.3084,3.3101,3.3107,3.3132,3.3131,3.3148,3.3177,3.3189,3.3198,3.3232,3.3229,3.3238,3.3253,3.327,3.3274,3.3277,3.329,3.3295,3.324,3.324,3.324,0,3.3017,3.3046,3.3053,3.3074,3.3086,3.3086,3.3108,3.3119,3.3141,3.3149,3.3142,3.3181,3.3191,3.3223,3.3231,3.3239,3.3245,3.3235,3.3273,3.3277,3.328,3.3292,3.3297,3.3241,3.3241,3.3241,3.3241,0,3.3056,3.3077,3.3092,3.3116,3.3129,3.315,3.316,3.3173,3.3175,3.3183,3.321,3.3222,3.3242,3.325,3.3251,3.3282,3.3278,3.3272,3.326,3.3285,3.3297,3.3301,3.3243,3.3242,3.3242,3.3242,0,0,3.3084,3.3113,3.3118,3.313,3.3151,3.3167,3.3189,3.321,3.3221,3.3237,3.3256,3.3282,3.3278,3.3289,3.3292,3.3307,3.3334,3.33,3.33,3.3306,3.337,3.3374,3.3379,3.3333,3.3334,3.3335,3.3369,0,3.3112,3.3152,3.316,3.3195,3.3214,3.3216,3.3235,3.325,3.3259,3.3276,3.3285,3.3304,3.3297,3.3304,3.3319,3.3328,3.3347,3.3325,3.335,3.3351,3.3346,3.3385,3.3389,3.342,3.3373,3.3374,3.3374,0,3.315,3.317,3.3207,3.3228,3.3236,3.3253,3.3275,3.3291,3.3309,3.3314,3.3328,3.333,3.3353,3.334,3.3372,3.3358,3.3368,3.3375,3.3376,3.3378,3.3364,3.3388,3.343,3.3435,3.3381,3.3381,3.338,0,3.3168,3.3203,3.323,3.324,3.3264,3.3277,3.3287,3.3304,3.3317,3.3336,3.3344,3.3364,3.3375,3.3391,3.3398,3.3388,3.343,3.3418,3.3435,3.3435,3.3443,3.3442,3.3487,3.345,3.345,3.345,3.345,0,3.3199,3.3221,3.3239,3.3255,3.3281,3.329,3.3315,3.3326,3.3341,3.336,3.3362,3.3379,3.3388,3.3407,3.3413,3.3439,3.3444,3.3448,3.345,3.3448,3.3448,3.3455,3.3453,3.3451,3.3451,3.345,3.345,0,3.3222,3.3234,3.3264,3.3286,3.3292,3.3311,3.3329,3.3345,3.3355,3.3378,3.3384,3.3399,3.3421,3.343,3.3457,3.3461,3.3491,3.3491,3.3486,3.3486,3.3503,3.3501,3.3554,3.3561,3.3519,3.3519,3.352,0,3.3241,3.3259,3.3284,3.3297,3.3309,3.333,3.3344,3.3354,3.3369,3.3392,3.3405,3.3428,3.3447,3.3482,3.3495,3.3515,3.3516,3.3533,3.3518,3.3517,3.3516,3.3515,3.3517,3.3535,3.3535,3.3536,3.3536,0,3.3273,3.3279,3.33,3.3324,3.3341,3.336,3.3378,3.3388,3.3401,3.3417,3.3441,3.3456,3.3485,3.3508,3.353,3.354,3.354,3.3541,3.3546,3.3544,3.3541,3.3543,3.3493,3.3539,3.3539,3.3539,3.3538,3.3538,3.3295,3.3312,3.3333,3.3356,3.3372,3.3389,3.3407,3.3419,3.344,3.3465,3.3469,3.3495,3.3514,3.3544,3.3555,3.3575,3.3571,3.3578,3.358,3.3581,3.3583,3.3538,3.3579,3.3579,3.3579,3.3579,3.3579,0,3.3328,3.3342,3.3364,3.3391,3.341,3.3411,3.3431,3.3447,3.347,3.3488,3.3507,3.3535,3.3558,3.3573,3.3596,3.3609,3.361,3.3615,3.3613,3.3616,3.3585,3.3579,3.3614,3.3614,3.3614,3.3614,3.3614,3.3614,3.3348,3.3377,3.3386,3.3423,3.3436,3.3463,3.3475,3.3491,3.3506,3.3538,3.3557,3.3568,3.3585,3.3609,3.363,3.3634,3.3642,3.3648,3.3651,3.3622,3.3618,3.3615,3.3609,3.3649,3.3649,3.3681,3.3681,3.3681]}]]